Weather History for Juliana Airport, Saint Maarten, Saint Maartin

Change the Weather History Date:

Friday, March 8, 2013

  Actual Average Record
Temperature  
Mean Temperature 78 °F -  
Max Temperature 82 °F 82 °F - ()
Min Temperature 75 °F 73 °F - ()
Cooling Degree Days 14    
Growing Degree Days 28 (Base 50)    
Moisture  
Dew Point 71 °F    
Average Humidity 76    
Maximum Humidity 83    
Minimum Humidity 63    
Precipitation  
Precipitation 0.04 in 0.07 in - ()
Sea Level Pressure  
Sea Level Pressure 30.01 in    
Wind  
Wind Speed 3 mph ()    
Max Wind Speed 9 mph    
Max Gust Speed -    
Visibility 6.6 miles    
Events Rain    
T = Trace of Precipitation, MM = Missing Value Source: Averaged Metar Reports

Daily Weather History Graph

Daily Weather History Graph

Search for Another Location

Airport:

Trip Planner

Search our weather history database for the weather conditions in past years. The results will help you decide how hot, cold, wet, or windy it might be!

Date:

Astronomy

Mar. 08, 2013 Rise Set
Actual Time 6:25 AM AST 6:20 PM AST
Civil Twilight 6:04 AM AST 6:42 PM AST
Nautical Twilight 5:38 AM AST 7:07 PM AST
Astronomical Twilight 5:13 AM AST 7:32 PM AST
Moon 3:43 AM AST (3/8) 3:31 PM AST (3/8)
Length of Visible Light 12h 38m
Length of Day
11h 54m
Waning Crescent, 12% of the Moon is Illuminated
Mar 8
Waning Crescent
Mar 11
New
Mar 19
First Quarter
Mar 27
Full
Apr 3
Last Quarter

Hourly Weather History & Observations

Time (AST) Temp. Heat Index Dew Point Humidity Pressure Visibility Wind Dir Wind Speed Gust Speed Precip Events Conditions
12:00 AM 77.0 °F - 71.6 °F 83% 30.04 in 6.2 mi NNW 2.3 mph - N/A   Partly Cloudy
1:00 AM 77.0 °F - 71.6 °F 83% 30.01 in 6.2 mi North 3.5 mph - N/A   Partly Cloudy
2:00 AM 77 °F - 71 °F 77% 29.99 in 22 mi NNW 3.5 mph - -   Partly Cloudy
2:00 AM 77.0 °F - 71.6 °F 83% 29.98 in 6.2 mi NNW 3.5 mph - N/A   Scattered Clouds
3:00 AM 77.0 °F - 71.6 °F 83% 29.98 in 6.2 mi NNW 2.3 mph - N/A   Scattered Clouds
4:00 AM 77.0 °F - 71.6 °F 83% 29.98 in 6.2 mi NNW 2.3 mph - N/A   Scattered Clouds
5:00 AM 76 °F - 71 °F 80% 29.99 in 22 mi 1.2 mph - -   Partly Cloudy
5:00 AM 77.0 °F - 71.6 °F 83% 29.98 in 6.2 mi Variable 1.2 mph - N/A   Scattered Clouds
6:00 AM 77.0 °F - 71.6 °F 83% 29.98 in 6.2 mi Variable 1.2 mph - N/A   Mostly Cloudy
7:00 AM 77.0 °F - 71.6 °F 83% 30.01 in 6.2 mi NW 2.3 mph - N/A   Mostly Cloudy
8:00 AM 80 °F - 72 °F 71% 30.04 in 28 mi WNW 3.5 mph - -   Mostly Cloudy
8:00 AM 78.8 °F - 71.6 °F 78% 30.04 in 6.2 mi West 2.3 mph - N/A   Mostly Cloudy
9:00 AM 78.8 °F - 71.6 °F 78% 30.04 in 6.2 mi West 4.6 mph - N/A Rain Light Rain Showers
10:00 AM 80.6 °F 84.6 °F 71.6 °F 74% 30.06 in 6.2 mi ENE 5.8 mph - N/A   Partly Cloudy
11:00 AM 82 °F - 71 °F 63% 30.06 in 22 mi East 5.8 mph - -   Partly Cloudy
11:00 AM 82.4 °F 87.2 °F 71.6 °F 70% 30.04 in 6.2 mi East 4.6 mph - N/A   Scattered Clouds
12:00 PM 80.6 °F 83.9 °F 69.8 °F 70% 30.04 in 6.2 mi Variable 2.3 mph - N/A   Scattered Clouds
1:00 PM 78.8 °F - 69.8 °F 74% 30.01 in 6.2 mi Variable 2.3 mph - N/A Rain Light Rain Showers
2:00 PM 80 °F - 70 °F 65% 30.01 in 16 mi ESE 1.2 mph - - Rain Light Rain Showers
2:00 PM 80.6 °F 83.9 °F 69.8 °F 70% 30.01 in 6.2 mi Variable 2.3 mph - N/A Rain Light Rain Showers
3:00 PM 82.4 °F 86.3 °F 69.8 °F 66% 29.98 in 6.2 mi Variable 3.5 mph - N/A   Partly Cloudy
4:00 PM 82.4 °F 86.3 °F 69.8 °F 66% 29.98 in 6.2 mi Variable 2.3 mph - N/A   Scattered Clouds
5:00 PM 80 °F - 70 °F 64% 30.00 in 22 mi NE 9.2 mph - -   Partly Cloudy
5:00 PM 80.6 °F 83.9 °F 69.8 °F 70% 29.98 in 6.2 mi NE 5.8 mph - N/A   Scattered Clouds
6:00 PM 77.0 °F - 68.0 °F 74% 30.01 in 6.2 mi NE 8.1 mph - N/A   Mostly Cloudy
7:00 PM 77.0 °F - 69.8 °F 78% 30.01 in 6.2 mi NE 5.8 mph - N/A   Mostly Cloudy
8:00 PM 77 °F - 70 °F 73% 30.02 in 22 mi ENE 8.1 mph - -   Partly Cloudy
8:00 PM 77.0 °F - 69.8 °F 78% 30.01 in 6.2 mi NE 6.9 mph - N/A   Scattered Clouds
9:00 PM 77.0 °F - 69.8 °F 78% 30.01 in 6.2 mi ENE 5.8 mph - N/A   Partly Cloudy
10:00 PM 77.0 °F - 69.8 °F 78% 30.04 in 6.2 mi ENE 5.8 mph - N/A   Partly Cloudy
11:00 PM 75 °F - 69 °F 77% 30.03 in 22 mi ENE 1.2 mph - -   Scattered Clouds
11:00 PM 75.2 °F - 69.8 °F 83% 30.01 in 6.2 mi Variable 1.2 mph - N/A   Partly Cloudy